Regional Weather Roundup
Issued by NWS

Current Version | Previous Version | Text Only | Print | Product List | Glossary Off
Versions: 1 2 3 4 5 6 7 8 9 10 11 12 13 14 15 16 17 18 19 20 21 22 23 24 25 26 27 28 29 30 31 32 33 34 35 36 37 38 39 40 41 42 43 44 45 46 47 48 49 50

000
ASUS44 KJAN 201010
RWRMS

MISSISSIPPI HOURLY WEATHER ROUNDUP
NATIONAL WEATHER SERVICE JACKSON MS
500 AM CDT SAT SEP 20 2014

NOTE: "FAIR: INDICATES FEW OR NO CLOUDS BELOW 12,000 FEET WITH NO
SIGNIFICANT WEATHER AND/OR OBSTRUCTIONS TO VISIBILITY.

MSZ001>002-007>008-010>013-018>021-025>028-034>036-201100-
NORTHWEST MISSISSIPPI

CITY           SKY/WX    TMP DP  RH WIND       PRES   REMARKS
CLARKSDALE       N/A     68  68 100 CALM      30.01S
CLEVELAND      FAIR      69  68  98 E3        29.99R
GREENWOOD      CLEAR     71  65  81 E6        29.99S
GREENVILLE     CLEAR     69  65  86 CALM      29.98R
GRENADA        FAIR      70  66  88 E6        30.01S
OLIVE BRANCH   CLEAR     66  66 100 SE6       30.03R
OXFORD         FAIR      68  64  88 SE6       30.05R
TUNICA         SUNNY     64  64 100 CALM      30.02R
$$

MSZ003>006-009-014>017-022>024-029>033-037>039-201100-
NORTHEAST MISSISSIPPI

CITY           SKY/WX    TMP DP  RH WIND       PRES   REMARKS
COLUMBUS AFB   CLEAR     68  66  92 E3        30.04R
CORINTH          N/A     63  61  94 CALM      30.05R FOG
GOLDN TRIANGLE CLEAR     70  63  78 E8        30.04S
STARKVILLE     FAIR      68  64  88 E5        30.03R
TUPELO         CLEAR     71  65  81 S5        30.04R
$$

MSZ040-058-201100-
CENTRAL MISSISSIPPI

CITY           SKY/WX    TMP DP  RH WIND       PRES   REMARKS
JACKSON INTL   CLEAR     69  67  93 CALM      29.99R
JACKSON HAWKNS CLEAR     71  68  90 SE3       29.99R
MERIDIAN KEY   CLEAR     68  65  90 E5        30.02R
MERIDIAN NAS   CLEAR     68  64  87 E3        30.03R
RAYMOND        HAZE      66  61  82 CALM      29.99R VSB 1/2
VICKSBURG      PTCLDY    66  65  96 CALM      29.98R
$$

MSZ059>079-201100-
SOUTH MISSISSIPPI

CITY           SKY/WX    TMP DP  RH WIND       PRES   REMARKS
BROOKHAVEN     FAIR      64  64 100 CALM      30.01R FOG
COLUMBIA       FAIR      66  64  94 CALM      29.97R FOG
HATTIESBURG    CLEAR     68  66  93 CALM      29.98S FOG
MCCOMB         CLEAR     72  67  84 NE3       29.98R
NATCHEZ        CLEAR     68  66  94 CALM      29.98S
PINE BELT      CLEAR     66  63  88 N3        30.00R
$$

MSZ080>082-201100-
COASTAL MISSISSIPPI

CITY           SKY/WX    TMP DP  RH WIND       PRES   REMARKS
BILOXI         CLEAR     72  68  87 NE8       29.95R
PASCAGOULA     CLEAR     70  67  90 NE5       29.95R
GULFPORT       CLEAR     73  68  84 NE7       29.94R
$$


USA.gov is the U.S. government's official web portal to all federal, state and local government web resources and services.